Regional Weather Roundup
Issued by NWS

Home | Current Version | Previous Version | Text Only | Print | Product List | Glossary On
Versions: 1 2 3 4 5 6 7 8 9 10 11 12 13 14 15 16 17 18 19 20 21 22 23 24 25 26 27 28 29 30 31 32 33 34 35 36 37 38 39 40 41 42 43 44 45 46 47 48 49 50
000
ASUS44 KEWX 220510
RWRTX
SOUTH TEXAS REGIONAL WEATHER ROUNDUP
NATIONAL WEATHER SERVICE AUSTIN/SAN ANTONIO TX
1200 AM CDT MON SEP 22 2014

NOTE: "FAIR" INDICATED FEW OR NO CLOUDS BELOW 12,000 FEET WITH NO
SIGNIFICANT WEATHER AND/OR OBSTRUCTIONS TO VISIBILITY.

* - THESE STATIONS ARE NOT NWS OR FAA STATIONS...AND ARE NOT SUBJECT
    TO NWS AND FAA QUALITY CONTROL.

TXZ171-172-183>190-220600-
TEXAS HILL COUNTRY AND EDWARDS PLATEAU

CITY           SKY/WX    TMP DP  RH WIND       PRES   REMARKS
JUNCTION       MOCLDY    76  64  66 E3        30.15R
*LLANO         CLEAR     73  68  83 CALM      30.14S
BURNET         CLEAR     72  64  76 CALM      30.13S
*HORSESHOE BAY CLEAR     72  64  77 CALM      30.11S
*KERRVILLE     PTCLDY    72  66  83 CALM      30.14S
*FREDERICKSBRG CLEAR     69  66  90 CALM      30.14S
*ROCKSPRINGS   MOCLDY    73  64  73 E3        30.19S
*BOERNE STAGE  CLEAR     68  61  77 CALM      30.13S
*CASTROVILLE   CLEAR     75  64  69 CALM      30.10R
HONDO          PTCLDY    74  62  66 NE6       30.10S
*UVALDE        PTCLDY    76  72  87 NE3       30.10S
DEL RIO        CLOUDY    79  71  76 NE5       30.07S
LAUGHLIN AFB   CLOUDY    78  73  83 NE5       30.09R
CARRIZO SPRGS  CLEAR     73  72  94 CALM      30.07R
$$

TXZ173-191>194-202-209-217>225-228-220600-
CENTRAL AND SOUTH CENTRAL TEXAS

CITY           SKY/WX    TMP DP  RH WIND       PRES   REMARKS
GEORGETOWN     PTCLDY    72  64  78 CALM      30.09S
AUSTIN/BERGSTM PTCLDY    71  69  93 CALM      30.07R
AUSTIN/MABRY   PTCLDY    75  67  76 N3        30.08S
*AUSTIN/EXEC   PTCLDY    75  66  73 CALM      30.08R
*LAGO VISTA    PTCLDY    75  64  67 CALM      30.11S
SAN MARCOS     CLEAR     72  63  73 CALM      30.08S
NEW BRAUNFELS  CLEAR     75  66  73 CALM      30.06S
RANDOLPH AFB   CLEAR     74  65  73 NE3       30.08S
PT SAN ANTONIO CLEAR     78  65  64 E5        30.07R
SAN ANTONIO    CLEAR     77  65  66 N3        30.08S
STINSON FIELD  CLEAR     77  65  66 SE3       30.06R
*PLEASANTON    CLEAR     76  67  74 NE3       30.07R
*LA GRANGE     PTCLDY    74  71  91 CALM      30.04S
*GIDDINGS      PTCLDY    72  68  86 CALM      30.10S
*GONZALES      PTCLDY    74  70  88 CALM      30.05S
$$

TXZ163>164-176>182-195>201-210>213-226-227-235-220600-
SOUTHEAST TEXAS

CITY           SKY/WX    TMP DP  RH WIND       PRES   REMARKS
COLLEGE STN    PTCLDY    77  69  76 CALM      30.06R
*BRYAN         PTCLDY   N/A N/A N/A CALM      30.05S
*CALDWELL      PTCLDY    72  70  94 CALM      30.09S
*CROCKETT      PTCLDY    73  72  94 CALM      30.08S
*BRENHAM       PTCLDY    74  71  89 CALM      30.06R
HUNTSVILLE     PTCLDY    76  68  76 CALM      30.05F
CONROE         PTCLDY    71  70  96 CALM      30.05S FOG
HOUSTON BUSH   PTCLDY    75  71  87 CALM      30.03S
HOUSTON HOBBY  PTCLDY    77  72  84 CALM      30.02S
*HOUSTON SW AP PTCLDY    65  64  98 CALM      30.04S
PEARLAND       PTCLDY    76  72  87 CALM      30.04S
HOUSTON HOOKS  PTCLDY    74  71  91 CALM      30.04S
ELLINGTON FLD  CLEAR     79  70  73 CALM      30.04S
SUGAR LAND     PTCLDY    73  70  90 CALM      30.03S
*HOUSTON EXEC  PTCLDY    75  72  88 N3        30.05S
*CLEVELAND MUN PTCLDY    73  72  97 CALM      30.05S FOG
*WHARTON       CLEAR     73  70  92 CALM      30.05R
$$

TXZ214>216-236>238-220600-
THE UPPER TEXAS COAST

CITY           SKY/WX    TMP DP  RH WIND       PRES   REMARKS
*ORANGE        CLEAR    N/A N/A N/A CALM      30.04F HAZE
PORT ARTHUR    CLEAR     76  72  87 N3        30.02S
GALVESTON      CLEAR     80  75  84 NE3       30.03S
ANGLETON       PTCLDY    73  72  96 CALM      30.03S
*BAY CITY      CLEAR    N/A N/A N/A CALM      30.03R
PALACIOS       CLEAR     74  70  87 N5        30.02S
$$

TXZ229>234-239>247-220600-
TEXAS COASTAL BEND AND RIO GRANDE PLAINS

CITY           SKY/WX    TMP DP  RH WIND       PRES   REMARKS
VICTORIA       CLEAR     76  72  87 NE3       30.04S
*BEEVILLE      CLEAR     74  69  83 E3        30.04R
ROCKPORT       CLEAR     81  72  74 E10       30.02R
*PORT ARANSAS  CLEAR     82  69  65 E13G20    30.01S
*PORT LAVACA   CLEAR     75  72  91 E3        30.03S
*INGLESIDE     CLEAR     78  71  79 NE6       30.02R
CORPUS CHRISTI PTCLDY    80  71  74 E12       30.02R
CORPUS NAS     CLEAR     80  69  69 E14       30.01R
*ROBSTOWN      NOT AVBL
ALICE          CLEAR     75  72  90 NE5       30.03R
KINGSVILLE NAS CLEAR     75  74  96 NE6       30.02R
COTULLA        CLEAR     78  71  79 SE6       30.06R
*FAITH RANCH   MOCLDY    77  73  88 E5        30.07R
LAREDO         CLEAR     77  73  87 E6        30.07R
$$

TXZ248>255-220600-
DEEP SOUTH TEXAS

CITY           SKY/WX    TMP DP  RH WIND       PRES   REMARKS
BROWNSVILLE    CLEAR     80  76  87 E3        29.97S
PORT ISABEL    NOT AVBL
*SOUTH PADRE   CLOUDY    82  77  83 E17       29.97S HX  91
HARLINGEN      PTCLDY    78  77  96 CALM      29.97S
*HEBBRONVILLE    N/A     75  72  88 NE5       30.06R
MCALLEN        LGT RAIN  78  76  93 E9        30.00S
*WESLACO       CLOUDY    78  74  87 NE5       29.98F
FALFURRIAS     CLEAR    N/A N/A N/A NE6       30.01S
EDINBURG       MOCLDY    79  74  86 CALM      30.00S
*ZAPATA        NOT AVBL
$$

TXZ213>215-236>238-242>244-246-247-251-254-255-220600-
CMAN STATIONS

STATION/POSITION TIME  TEMP    WIND        PRES    WAVE
                       AIR SEA DIR/SP/G            HT/PER
                 (UTC) (F)     (DEG/KT/KT) (MB)    (FT/S)
SABINE PASS      0500   79 83   80/  4/  5 1016.7
SEA RIM ST PARK  0500   79      40/  1/  1 1017.1
NORTH JETTY/GLS  0500   81 83   90/  4/  5   N/A
EAGLE POINT      0500   79 83   10/  2/  3 1016.7
MORGANS POINT    0500   81        CALM     1016.5
MISSION/ARANSAS  0400           70/  9     1017.0
PORT O`CONNOR    0500           60/ 10/ 11   N/A
PORT ARANSAS     0500   84 83   70/ 21/ 23 1016.7
MALAQUITE BEACH  0500   83 84   60/ 20/ 22 1015.4
BAFFIN BAY       0500   82 84   60/ 17/ 19 1015.9
PORT ISABEL      0500   83 85   50/ 11/ 17 1015.1
$$

GMZ080-GMZ150>470-220600-
OFFSHORE BUOY REPORTS

STATION/POSITION TIME  TEMP    WIND        PRES    WAVE
                       AIR SEA DIR/SP/G            HT/PER
                 (UTC) (F)     (DEG/KT/KT) (MB)    (FT/S)
20 E GALVESTON   0500   83 83   60/  8/  8 1016.1    2/ 6
90 E PT ARANSAS  0500   84 85   60/ 17/ 19 1015.9    6/ 6
35 NE PT MANSFLD 0500   83 85   70/ 17/ 21 1014.6    6/ 5
200 E PT ISABEL  0500   84 85   80/ 16/ 17 1014.3    4/ 7
$$



USA.gov is the U.S. government's official web portal to all federal, state and local government web resources and services.